Regional Weather Roundup
Issued by NWS

Home | Current Version | Previous Version | Graphics & Text | Print | Product List | Glossary On
Versions: 1 2 3 4 5 6 7 8 9 10 11 12 13 14 15 16 17 18 19 20 21 22 23 24 25 26 27 28 29 30 31 32 33 34 35 36 37 38 39 40 41 42 43 44 45 46 47 48 49 50
000
ASUS43 KLOT 011321
RWRIL

ILLINOIS REGIONAL WEATHER ROUNDUP
NATIONAL WEATHER SERVICE CHICAGO/ROMEOVILLE IL
800 AM CDT SAT AUG 01 2015

NOTE: "FAIR" INDICATES FEW OR NO CLOUDS BELOW 12,000 FEET WITH NO
SIGNIFICANT WEATHER AND/OR OBSTRUCTIONS TO VISIBILITY.

* THESE STATIONS ARE NOT UNDER NWS QUALITY CONTROL. THEY ALSO MAY NOT
  REPORT WEATHER SUCH AS PRECIPITATION OR FOG.

ILZ001-002-007-009-015-016-024-011400-
NORTHWEST ILLINOIS

CITY           SKY/WX    TMP DP  RH WIND       PRES   REMARKS
MOLINE         SUNNY     68  61  78 CALM      30.03R
STERLING*      SUNNY     72  63  73 W3        30.00R
SAVANNA*       SUNNY     68  63  84 CALM      30.01S
$$

ILZ003-004-008-010-011-017-018-011400-
NORTH CENTRAL ILLINOIS

CITY           SKY/WX    TMP DP  RH WIND       PRES   REMARKS
ROCKFORD       MOSUNNY   63  58  83 S5        30.02S
FREEPORT*      PTSUNNY   65  59  82 W7        30.03R
ROCHELLE*      SUNNY     64  61  88 SW5       30.03R
DE KALB*       PTSUNNY   69  59  71 W6        30.02S
PERU*          SUNNY     67  60  77 W5        30.03S
$$

ILZ005-006-012>014-019>023-011400-
NORTHEAST ILLINOIS

CITY           SKY/WX    TMP DP  RH WIND       PRES   REMARKS
CHICAGO-OHARE  MOSUNNY   70  56  61 W7        29.99S
CHICAGO-MIDWAY MOSUNNY   72  54  53 W6        29.99S
AURORA         SUNNY     65  58  78 W3        30.02R
LANSING*       SUNNY     69  56  62 W6        30.00F
JOLIET*        SUNNY     68  59  73 CALM      30.01S
WAUKEGAN       SUNNY     69  57  65 SW5       29.98R
DUPAGE AIRPORT SUNNY     68  58  70 SW5       30.00S
KANKAKEE*      SUNNY     67  60  80 W5        30.03S
WHEELING       SUNNY     71  54  54 W6        30.00S
MORRIS*        SUNNY     67  61  82 CALM      30.01S
ROMEOVILLE*    SUNNY     66  57  72 W3        30.01S
NORTHERLY ISL    N/A     72  52  49 SW8         N/A
$$

LMZ740>746-011400-
SOUTHERN LAKE MICHIGAN

STATION/POSITION SKY/WX   TEMP    WIND        PRES    VSBY  WAVE
                          AIR SEA DIR/SP/G                  HT/PER
                          (F)     (DEG/KT/KT) (MB)    (MI)  (FT/S)
HARRISON CRIB              72     270/ 10/ 11   N/A
BURNHAM HARBOR             72     260/  8/ 10   N/A
CALUMET HARBOR             68     250/  3/  6   N/A
BURNS HARBOR               69     220/  4/  6 1016.3R
MICHIGAN CITY              71     210/ 13/ 14   N/A
MICHIGAN CITY 6N           73 73  280/ 10/ 12   N/A           3/ 4
ST. JOSEPH                 72 74  320/ 12/ 12   N/A           3/ 4
$$

ILZ025>027-034>036-040-047-049-050-058-095>099-011400-
WEST-CENTRAL ILLINOIS

CITY           SKY/WX    TMP DP  RH WIND       PRES   REMARKS
QUINCY         SUNNY     72  66  81 SW5       30.06R
GALESBURG*     SUNNY     67  62  84 CALM      30.05S
MACOMB*        SUNNY     72  64  75 CALM      30.07S
JACKSONVILLE*  MOSUNNY   73  67  80 CALM      30.06R
PITTSFIELD*    MOSUNNY   74  66  75 CALM      30.07S
$$

ILZ028>032-037-038-041>044-048-051>054-059>061-011400-
CENTRAL ILLINOIS

CITY           SKY/WX    TMP DP  RH WIND       PRES   REMARKS
PONTIAC        SUNNY     67  63  87 CALM      30.04S
BLOOMINGTON    SUNNY     72  60  65 CALM      30.06S
DECATUR        SUNNY     73  59  61 N7        30.05S
PEORIA         SUNNY     70  60  70 SW3       30.05S
LACON*         SUNNY     68  63  83 CALM      30.03S
LINCOLN*       SUNNY     73  62  68 CALM      30.05S
SPRINGFIELD    SUNNY     73  63  70 NE3       30.05F
TAYLORVILLE    SUNNY     70  63  78 CALM      30.05F
$$

ILZ033-039-045-046-055>057-062-063-011400-
EAST-CENTRAL ILLINOIS

CITY           SKY/WX    TMP DP  RH WIND       PRES   REMARKS
CHAMPAIGN      SUNNY     69  62  78 NW3       30.05S
DANVILLE*      SUNNY     68  60  75 NW5       30.02R
RANTOUL*       SUNNY     70  62  75 NW6       30.05S
MATTOON        SUNNY     70  58  65 N6        30.05R
PARIS*         SUNNY     68  62  80 NW3       30.05S
$$

ILZ079-100>102-011400-
SOUTHWEST ILLINOIS

CITY           SKY/WX    TMP DP  RH WIND       PRES   REMARKS
ALTON          MOSUNNY   72  66  83 N6        30.06S
BELLEVILLE     SUNNY     74  69  85 CALM      30.05R
CAHOKIA*       SUNNY     75  69  81 S3        30.05S
SPARTA*        SUNNY     74  68  80 CALM      30.07R
$$

ILZ064>066-069>071-074>076-080>082-084>086-088>090-092>094-011400-
SOUTH-CENTRAL ILLINOIS

CITY           SKY/WX    TMP DP  RH WIND       PRES   REMARKS
CARBONDALE     SUNNY     74  69  85 N3        30.05R
CAIRO*         SUNNY     76  71  83 CALM      30.05R
EFFINGHAM*     SUNNY     74  58  58 CALM      30.07R
MARION         SUNNY     75  70  83 N6        30.06R
MT. VERNON     SUNNY     75  63  64 NE5       30.07R
CENTRALIA*     SUNNY     75  64  67 E3        30.05S
SALEM*         SUNNY     77  62  58 CALM      30.06S
METROPOLIS*    SUNNY     75  73  93 CALM      30.05R
$$

ILZ067-068-072-073-078-083-087-091-011400-
SOUTHEAST ILLINOIS

CITY           SKY/WX    TMP DP  RH WIND       PRES   REMARKS
LAWRENCEVILLE  SUNNY     73  61  65 N5        30.04R
FLORA*         SUNNY     74  61  62 NE5       30.06R
FAIRFIELD*     SUNNY     74  66  77 N5        30.04S
HARRISBURG*    SUNNY     76  69  79 N6        30.06R
ROBINSON*      SUNNY     71  61  71 NW3       30.06R
CARMI*         SUNNY     75  64  67 CALM      30.05R
$$

ABBREVIATIONS USED IN REMARKS
   TC - TEMPERATURE IN CELSIUS
  WCI - WIND CHILL INDEX
   HX - HEAT INDEX
  VSB - VISIBILITY
$$



USA.gov is the U.S. government's official web portal to all federal, state and local government web resources and services.